Location: Prescott
(34.5400°N, 112.4680°W)
Time: 02:45:32
(UTC-07:00)

Amateur Radio Satellites - All Passes

Search period start: 26 April 2015 02:15
Search period end: 27 April 2015 02:15
Location: Prescott, 34.5400°N, 112.4680°W

Satellite Date Start Highest point End Downlink Frequencies (MHz)
Time Altitude Azimuth
Gurwin Techsat 1B 26 Apr 02:17:15 02:21:48 29° 96° (E) 02:26:25 435.225
KKS-1 26 Apr 02:27:34 02:31:58 68° 76° (ENE) 02:36:23 437.445
BEESAT 26 Apr 02:41:04 02:43:58 15° 268° (W) 02:46:39 436.000
AIST 2 26 Apr 02:41:53 02:45:48 39° 114° (ESE) 02:49:49 435.215
SWISSCUBE 26 Apr 02:44:19 02:46:39 13° 269° (W) 02:48:42 437.505
Oscar 19 26 Apr 02:49:10 02:53:49 33° 289° (WNW) 02:58:21 437.125/150
CUSAT 1 26 Apr 02:54:34 03:00:49 27° 71° (ENE) 03:07:41 437.405
HORYU 2 26 Apr 03:08:34 03:11:14 16° 92° (E) 03:14:04 437.375
BEESAT 3 26 Apr 03:16:03 03:19:13 21° 309° (NW) 03:22:20 437.485
BEESAT 2 26 Apr 03:17:41 03:21:05 24° 307° (NW) 03:24:27 435.950
STARS 26 Apr 03:21:25 03:25:37 45° 261° (W) 03:29:50 437.465
ITAMSAT 1 26 Apr 03:24:22 03:29:23 50° 287° (WNW) 03:34:22 435.822/435.867
JUGNU 26 Apr 03:30:34 03:34:28 18° 185° (S) 03:38:19 437.505
DANDE 26 Apr 03:35:48 03:43:00 43° 76° (ENE) 03:51:04 436.750
SRMSAT 26 Apr 03:40:45 03:44:44 19° 177° (S) 03:48:43 437.500
GONETS M04 26 Apr 03:49:11 03:58:05 86° 83° (E) 04:06:55
Gurwin Techsat 1B 26 Apr 03:57:10 04:01:44 29° 290° (WNW) 04:06:11 435.225
AO-7 26 Apr 04:02:31 04:10:21 45° 100° (E) 04:18:16 29.400- 29.500
Cosmos 2499 26 Apr 04:18:37 04:23:37 19° 66° (ENE) 04:28:46 435.465 / 435.565
AIST 2 26 Apr 04:21:33 04:24:35 18° 310° (NW) 04:27:31 435.215
JAS-2 26 Apr 04:26:31 04:32:41 69° 100° (E) 04:38:11 435.910
AUBIESAT-1 26 Apr 04:33:53 04:35:22 12° 61° (ENE) 04:37:08 437.475
MOZHAYETS 4 26 Apr 04:33:58 04:38:37 81° 257° (WSW) 04:43:17
CUSAT 1 26 Apr 04:36:13 04:43:59 63° 265° (W) 04:52:08 437.405
HORYU 2 26 Apr 04:43:52 04:48:04 38° 287° (WNW) 04:52:12 437.375
DANDE 26 Apr 05:19:03 05:26:15 40° 268° (W) 05:33:56 436.750
JUGNU 26 Apr 05:20:57 05:22:46 11° 194° (SSW) 05:24:29 437.505
M-CUBED/EXP-1 PRIME 26 Apr 05:23:14 05:27:45 44° 69° (ENE) 05:32:21 437.505
SRMSAT 26 Apr 05:29:29 05:33:14 17° 187° (S) 05:36:56 437.500
GONETS M04 26 Apr 05:48:56 05:53:57 16° 279° (W) 05:58:18
AO-7 26 Apr 05:55:34 06:03:02 37° 296° (WNW) 06:10:20 29.400- 29.500
AUBIESAT-1 26 Apr 06:04:51 06:09:35 75° 254° (WSW) 06:14:24 437.475
Cosmos 2499 26 Apr 06:10:02 06:17:38 65° 267° (W) 06:24:42 435.465 / 435.565
CUBESAT XI-V 26 Apr 06:12:00 06:16:38 84° 77° (ENE) 06:21:16 437.345
JAS-2 26 Apr 06:13:37 06:17:01 15° 299° (WNW) 06:19:57 435.910
CUTE-I 26 Apr 06:17:53 06:22:48 38° 98° (E) 06:27:46 437.470
Cubesat XI-IV 26 Apr 06:27:32 06:32:40 49° 99° (E) 06:37:49 437.490
PRISM 26 Apr 06:30:22 06:34:33 87° 77° (ENE) 06:38:44 437.425
STRAND 1 26 Apr 06:31:39 06:36:41 64° 74° (ENE) 06:41:45 437.568
M-CUBED/EXP-1 PRIME 26 Apr 06:59:28 07:02:47 18° 264° (W) 07:05:56 437.505
O/OREOS (USA 219) 26 Apr 07:25:34 07:29:18 26° 62° (ENE) 07:33:04 437.305
BRITE-PL 26 Apr 07:46:20 07:50:19 22° 94° (E) 07:54:37 437.365/2234.400
PCSat 26 Apr 07:52:25 07:57:49 86° 118° (ESE) 08:03:17 145.827
CUTE-I 26 Apr 07:58:32 08:02:40 23° 292° (WNW) 08:06:41 437.470
DOVE 4 26 Apr 08:05:26 08:08:00 14° 90° (E) 08:10:55 437.250
Cubesat XI-IV 26 Apr 08:08:47 08:12:26 18° 293° (WNW) 08:15:54 437.490
STRAND 1 26 Apr 08:14:20 08:16:24 12° 270° (W) 08:18:07 437.568
CANX-2 26 Apr 08:16:20 08:19:07 17° 93° (E) 08:22:01 2200.000
CUTE 1.7 + AOD 2 26 Apr 08:25:07 08:28:12 20° 93° (E) 08:31:23 437.475
CINEMA 3 26 Apr 08:44:25 08:47:39 18° 91° (E) 08:51:05 145.822/145.860
HO-68 26 Apr 08:52:35 08:59:32 51° 100° (E) 09:06:28 435.675
O/OREOS (USA 219) 26 Apr 09:05:01 09:08:38 23° 257° (WSW) 09:12:07 437.305
UWE-3 26 Apr 09:05:59 09:06:45 10° 89° (E) 09:07:52 435.000/436.395/437.385
GOMX 1 26 Apr 09:07:42 09:12:57 86° 285° (WNW) 09:18:25 467.674
COMPASS 1 26 Apr 09:14:43 09:18:50 52° 100° (E) 09:22:54 437.405
ANTELSAT 26 Apr 09:19:51 09:22:34 16° 68° (ENE) 09:25:32 437.575/2403.000
BRITE-PL 26 Apr 09:24:04 09:28:54 40° 286° (WNW) 09:33:58 437.365/2234.400
Cosmos 2491 26 Apr 09:25:54 09:34:30 54° 78° (ENE) 09:43:07 435.465 / 435.565
DELFI C3 26 Apr 09:28:25 09:31:17 19° 94° (E) 09:34:14 145.870
Oscar 11 26 Apr 09:34:20 09:38:14 32° 97° (E) 09:42:09 145.826/435.025
ZACube-1 26 Apr 09:37:10 09:40:27 20° 93° (E) 09:43:52 437.345
PCSat 26 Apr 09:39:27 09:42:03 13° 314° (NW) 09:44:24 145.827
DOVE 4 26 Apr 09:41:02 09:46:07 59° 285° (WNW) 09:51:20 437.250
SEEDS 26 Apr 09:41:21 09:45:30 56° 285° (WNW) 09:49:36 437.485
QB50P2 26 Apr 09:45:25 09:47:25 14° 68° (ENE) 09:49:38 145.880/145.840
CANX-2 26 Apr 09:51:19 09:55:08 31° 287° (WNW) 09:58:53 2200.000
AAUSAT CUBESAT 2 26 Apr 09:56:46 10:00:51 53° 285° (WNW) 10:04:53 437.432
SO-50 26 Apr 09:57:10 09:59:50 16° 109° (ESE) 10:02:47 436.795
CUTE 1.7 + AOD 2 26 Apr 10:00:28 10:04:09 28° 288° (WNW) 10:07:43 437.475
NANOSAT C BR1 26 Apr 10:01:54 10:04:57 20° 70° (ENE) 10:08:08 145.865
POPSAT HIP 1 26 Apr 10:05:14 10:08:28 22° 71° (ENE) 10:11:49 437.405
TIGRISAT 26 Apr 10:07:52 10:12:13 54° 75° (ENE) 10:16:45 435.000
DX 1 26 Apr 10:09:25 10:12:59 25° 96° (E) 10:16:38 434.975-435.025
UNISAT 6 26 Apr 10:12:25 10:16:52 64° 76° (ENE) 10:21:28 437.425
50 SAT 26 Apr 10:13:02 10:14:19 12° 91° (E) 10:15:50 437.505
CUBEBUG 2 26 Apr 10:14:26 10:19:15 86° 104° (ESE) 10:23:59 437.445
CINEMA 3 26 Apr 10:20:17 10:25:03 44° 286° (WNW) 10:29:48 145.822/145.860
BUGSAT 1 26 Apr 10:25:51 10:29:08 25° 72° (ENE) 10:32:29 437.445
YUBILEINY 26 Apr 10:26:09 10:34:49 66° 93° (E) 10:43:33 435.215
POLYITAN 1 26 Apr 10:34:24 10:38:28 52° 75° (ENE) 10:42:38 437.675
DUCHIFAT 1 26 Apr 10:34:31 10:38:32 49° 75° (ENE) 10:42:38 145.980
UWE-3 26 Apr 10:39:06 10:43:46 62° 285° (WNW) 10:48:21 435.000/436.395/437.385
HO-68 26 Apr 10:41:02 10:46:56 27° 295° (WNW) 10:52:37 435.675
ESTCUBE 1 26 Apr 10:44:02 10:46:24 15° 92° (E) 10:49:00 437.505/2401.250
FUNcube-1 26 Apr 10:46:40 10:51:14 65° 284° (WNW) 10:55:45 145.935
UKube-1 26 Apr 10:50:50 10:55:11 75° 102° (ESE) 10:59:30 .
QB50P1 26 Apr 10:52:20 10:56:32 87° 78° (ENE) 11:00:47 145.935-145.965
COMPASS 1 26 Apr 10:52:52 10:54:06 11° 292° (WNW) 10:55:05 437.405
ANTELSAT 26 Apr 10:54:47 10:59:03 41° 262° (W) 11:03:24 437.575/2403.000
ISS 26 Apr 10:59:52 11:03:06 81° 135° (SE) 11:06:22 145.825
HUMSAT D 26 Apr 11:01:15 11:05:37 88° 101° (E) 11:09:55 437.325/437.525
DELFI C3 26 Apr 11:03:03 11:06:25 25° 288° (WNW) 11:09:43 145.870
AIST 2 26 Apr 11:09:01 11:10:05 11° 45° (NE) 11:11:23 435.215
Oscar 11 26 Apr 11:11:12 11:14:12 18° 290° (WNW) 11:17:03 145.826/435.025
ZACube-1 26 Apr 11:12:45 11:16:54 33° 287° (WNW) 11:20:56 437.345
QB50P2 26 Apr 11:18:59 11:22:59 42° 261° (W) 11:27:01 145.880/145.840
VELOX 1 26 Apr 11:19:02 11:23:29 74° 101° (E) 11:27:56 145.980
CUBEBUG 1 26 Apr 11:22:21 11:26:22 35° 98° (E) 11:30:25 437.445
Cosmos 2491 26 Apr 11:23:41 11:30:57 28° 274° (W) 11:37:53 435.465 / 435.565
SO-50 26 Apr 11:35:33 11:40:00 46° 304° (WNW) 11:44:38 436.795
BEESAT 3 26 Apr 11:36:55 11:41:01 82° 60° (ENE) 11:45:02 437.485
NANOSAT C BR1 26 Apr 11:37:05 11:40:40 26° 264° (W) 11:44:13 145.865
AISAT 26 Apr 11:37:17 11:41:43 65° 285° (WNW) 11:46:09 437.250
BEESAT 2 26 Apr 11:39:21 11:43:28 70° 61° (ENE) 11:47:30 435.950
POPSAT HIP 1 26 Apr 11:40:49 11:44:17 24° 265° (W) 11:47:41 437.405
50 SAT 26 Apr 11:45:34 11:49:24 41° 286° (WNW) 11:53:10 437.505
DX 1 26 Apr 11:45:38 11:49:09 24° 290° (WNW) 11:52:34 434.975-435.025
TIGRISAT 26 Apr 11:47:48 11:49:25 11° 271° (W) 11:50:45 435.000
AIST 1 26 Apr 11:54:32 11:58:47 70° 264° (W) 12:03:02
BUGSAT 1 26 Apr 12:01:40 12:04:37 19° 266° (W) 12:07:27 437.445
TISAT 1 26 Apr 12:06:30 12:09:44 22° 95° (E) 12:13:05 437.305
DUCHIFAT 1 26 Apr 12:13:45 12:14:44 10° 270° (W) 12:15:26 145.980
POLYITAN 1 26 Apr 12:14:15 12:14:48 10° 270° (W) 12:15:02 437.675
ESTCUBE 1 26 Apr 12:19:17 12:23:31 41° 287° (WNW) 12:27:43 437.505/2401.250
Oscar 19 26 Apr 12:23:50 12:27:59 26° 69° (ENE) 12:32:16 437.125/150
YUBILEINY 26 Apr 12:25:35 12:32:27 23° 292° (WNW) 12:38:55 435.215
Cosmos 2504 26 Apr 12:29:44 12:37:40 40° 89° (E) 12:45:43 435.465 / 435.565
ISS 26 Apr 12:38:18 12:39:51 13° 333° (NNW) 12:41:21 145.825
SPROUT 26 Apr 12:39:27 12:43:47 74° 102° (ESE) 12:48:06 437.525
AIST 2 26 Apr 12:45:02 12:49:15 72° 243° (WSW) 12:53:22 435.215
CUBEBUG 1 26 Apr 12:59:36 13:02:30 17° 291° (WNW) 13:05:13 437.445
ITAMSAT 1 26 Apr 13:01:23 13:04:42 18° 67° (ENE) 13:08:13 435.822/435.867
RS-15 26 Apr 13:01:51 13:11:31 41° 109° (ESE) 13:21:31 29.354- 29.394
BEESAT 26 Apr 13:06:29 13:09:08 15° 92° (E) 13:12:01 436.000
SWISSCUBE 26 Apr 13:08:45 13:11:53 18° 93° (E) 13:15:11 437.505
Gurwin Techsat 1B 26 Apr 13:34:55 13:39:35 33° 71° (ENE) 13:44:21 435.225
TISAT 1 26 Apr 13:41:56 13:45:30 26° 288° (WNW) 13:48:59 437.305
Oscar 19 26 Apr 14:02:39 14:07:13 31° 264° (W) 14:11:46 437.125/150
HORYU 2 26 Apr 14:05:58 14:06:27 10° 66° (ENE) 14:07:15 437.375
ITUPSAT 1 26 Apr 14:12:17 14:17:04 83° 103° (ESE) 14:21:49 437.325
Cosmos 2504 26 Apr 14:22:48 14:31:04 41° 285° (WNW) 14:39:09 435.465 / 435.565
KKS-1 26 Apr 14:23:20 14:26:15 18° 93° (E) 14:29:21 437.445
JAS-2 26 Apr 14:33:35 14:39:38 27° 66° (ENE) 14:45:49 435.910
ITAMSAT 1 26 Apr 14:38:54 14:43:53 47° 261° (W) 14:48:52 435.822/435.867
BEESAT 26 Apr 14:42:43 14:47:16 44° 287° (WNW) 14:51:45 436.000
SWISSCUBE 26 Apr 14:45:31 14:49:55 38° 288° (WNW) 14:54:17 437.505
GONETS M04 26 Apr 14:52:34 14:57:57 19° 83° (E) 15:03:52
AO-7 26 Apr 14:57:42 15:05:22 45° 66° (ENE) 15:13:08 29.400- 29.500
RS-15 26 Apr 15:13:09 15:23:42 51° 308° (NW) 15:34:21 29.354- 29.394
STARS 26 Apr 15:14:34 15:18:47 42° 98° (E) 15:23:01 437.465
Gurwin Techsat 1B 26 Apr 15:15:13 15:19:37 25° 265° (W) 15:23:55 435.225
VERMONT LUNAR 26 Apr 15:27:57 15:31:14 52° 151° (SSE) 15:34:32 437.305
HORYU 2 26 Apr 15:38:09 15:42:37 66° 259° (W) 15:47:06 437.375
KKS-1 26 Apr 15:58:56 16:03:02 35° 288° (WNW) 16:07:05 437.445
CUSAT 1 26 Apr 16:01:49 16:03:37 14° 84° (E) 16:05:51 437.405
PHONESAT 2.4 26 Apr 16:06:21 16:09:38 35° 148° (SSE) 16:12:57 2401.200-2431.200
JAS-2 26 Apr 16:16:28 16:24:13 61° 260° (W) 16:31:50 435.910
MOZHAYETS 4 26 Apr 16:33:08 16:37:09 31° 96° (E) 16:41:13
PCSat 26 Apr 16:44:13 16:49:02 32° 56° (NE) 16:53:54 145.827
GONETS M04 26 Apr 16:45:14 16:53:59 75° 278° (W) 17:02:50
DANDE 26 Apr 16:46:42 16:49:36 32° 90° (E) 16:53:18 436.750
Cosmos 2499 26 Apr 16:50:34 16:56:10 20° 84° (E) 17:02:11 435.465 / 435.565
AO-7 26 Apr 16:50:48 16:58:18 36° 262° (W) 17:05:38 29.400- 29.500
STARS 26 Apr 16:52:17 16:54:56 15° 292° (WNW) 16:57:25 437.465
VERMONT LUNAR 26 Apr 17:05:35 17:08:46 38° 347° (NNW) 17:11:58 437.305
ISS 26 Apr 17:30:29 17:32:56 20° 32° (NNE) 17:35:27 145.825
RS-15 26 Apr 17:33:35 17:39:49 16° 338° (NNW) 17:45:44 29.354- 29.394
CUTE-I 26 Apr 17:36:18 17:41:18 45° 73° (ENE) 17:46:22 437.470
CUSAT 1 26 Apr 17:42:48 17:45:53 26° 290° (WNW) 17:49:42 437.405
PHONESAT 2.4 26 Apr 17:44:20 17:47:49 50° 343° (NNW) 17:51:20 2401.200-2431.200
Cubesat XI-IV 26 Apr 17:46:03 17:51:15 57° 74° (ENE) 17:56:29 437.490
MOZHAYETS 4 26 Apr 18:10:44 18:14:14 21° 290° (WNW) 18:17:35
CUBESAT XI-V 26 Apr 18:12:45 18:16:38 27° 95° (E) 18:20:34 437.345
PRISM 26 Apr 18:17:44 18:20:03 15° 93° (E) 18:22:34 437.425
PCSat 26 Apr 18:27:44 18:32:23 29° 251° (WSW) 18:36:57 145.827
Cosmos 2499 26 Apr 18:39:43 18:48:37 76° 278° (W) 18:57:19 435.465 / 435.565
VERMONT LUNAR 26 Apr 18:43:42 18:46:42 28° 3° (N) 18:49:43 437.305
M-CUBED/EXP-1 PRIME 26 Apr 18:43:43 18:47:43 55° 104° (ESE) 18:51:22 437.505
STRAND 1 26 Apr 18:46:13 18:50:33 28° 96° (E) 18:54:57 437.568
GONETS M04 26 Apr 18:49:25 18:52:44 12° 300° (WNW) 18:55:16
BRITE-PL 26 Apr 18:56:17 18:58:03 13° 68° (ENE) 19:00:02 437.365/2234.400
ISS 26 Apr 19:06:23 19:09:23 35° 228° (SW) 19:12:23 145.825
CUTE-I 26 Apr 19:17:53 19:21:39 19° 267° (W) 19:25:12 437.470
HO-68 26 Apr 19:18:13 19:23:55 27° 64° (ENE) 19:29:49 435.675
PHONESAT 2.4 26 Apr 19:23:17 19:26:29 30° 360° (N) 19:29:42 2401.200-2431.200
AUBIESAT-1 26 Apr 19:25:04 19:29:00 47° 291° (WNW) 19:32:34 437.475
Cubesat XI-IV 26 Apr 19:28:47 19:31:48 15° 269° (W) 19:34:31 437.490
CUBESAT XI-V 26 Apr 19:50:15 19:53:59 24° 289° (WNW) 19:57:37 437.345
PRISM 26 Apr 19:51:58 19:55:40 33° 287° (WNW) 19:59:19 437.425
RS-15 26 Apr 19:54:30 19:59:07 13° 15° (NNE) 20:04:12 29.354- 29.394
COMPASS 1 26 Apr 20:03:05 20:06:24 23° 71° (ENE) 20:09:49 437.405
SO-50 26 Apr 20:10:07 20:15:01 60° 58° (ENE) 20:19:52 436.795
GOMX 1 26 Apr 20:13:07 20:17:14 66° 77° (ENE) 20:21:34 467.674
VERMONT LUNAR 26 Apr 20:21:10 20:24:32 61° 20° (NNE) 20:27:52 437.305
M-CUBED/EXP-1 PRIME 26 Apr 20:21:30 20:22:02 10° 300° (WNW) 20:22:21 437.505
STRAND 1 26 Apr 20:25:22 20:29:42 28° 290° (WNW) 20:33:56 437.568
Oscar 11 26 Apr 20:26:40 20:29:28 18° 70° (ENE) 20:32:26 145.826/435.025
SEEDS 26 Apr 20:29:33 20:33:46 62° 75° (ENE) 20:38:00 437.485
BRITE-PL 26 Apr 20:32:20 20:36:15 41° 262° (W) 20:40:17 437.365/2234.400
ZACube-1 26 Apr 20:32:37 20:33:04 10° 66° (ENE) 20:33:48 437.345
Cosmos 2499 26 Apr 20:39:23 20:43:24 13° 298° (WNW) 20:46:38 435.465 / 435.565
CANX-2 26 Apr 20:40:02 20:44:18 71° 259° (W) 20:48:37 2200.000
YUBILEINY 26 Apr 20:41:43 20:48:38 27° 70° (ENE) 20:55:49 435.215
DOVE 4 26 Apr 20:43:32 20:47:44 84° 258° (WSW) 20:52:11 437.250
AAUSAT CUBESAT 2 26 Apr 20:43:42 20:47:52 62° 76° (ENE) 20:52:03 437.432
CUTE 1.7 + AOD 2 26 Apr 20:49:00 20:53:15 61° 259° (W) 20:57:32 437.475
PHONESAT 2.4 26 Apr 21:01:40 21:05:10 49° 16° (NNE) 21:08:39 2401.200-2431.200
DX 1 26 Apr 21:02:57 21:05:16 15° 68° (ENE) 21:07:47 434.975-435.025
HO-68 26 Apr 21:04:21 21:11:19 52° 260° (W) 21:18:17 435.675
CUBEBUG 2 26 Apr 21:09:17 21:13:24 45° 74° (ENE) 21:17:43 437.445
CINEMA 3 26 Apr 21:18:27 21:22:43 69° 259° (W) 21:27:14 145.822/145.860
UWE-3 26 Apr 21:32:32 21:36:50 69° 76° (ENE) 21:41:18 435.000/436.395/437.385
O/OREOS (USA 219) 26 Apr 21:33:32 21:38:01 59° 107° (ESE) 21:42:32 437.305
COMPASS 1 26 Apr 21:38:33 21:42:01 24° 265° (W) 21:45:25 437.405
FUNcube-1 26 Apr 21:38:42 21:42:57 62° 76° (ENE) 21:47:21 145.935
UKube-1 26 Apr 21:42:21 21:46:21 39° 73° (ENE) 21:50:24 .
DELFI C3 26 Apr 21:46:11 21:50:15 69° 259° (W) 21:54:20 145.870
HUMSAT D 26 Apr 21:49:40 21:53:32 37° 74° (ENE) 21:57:32 437.325/437.525
SO-50 26 Apr 21:52:40 21:55:07 13° 251° (WSW) 21:57:17 436.795
VERMONT LUNAR 26 Apr 21:59:02 22:01:50 24° 214° (SW) 22:04:35 437.305
Oscar 11 26 Apr 22:01:26 22:05:25 34° 263° (W) 22:09:23 145.826/435.025
TIGRISAT 26 Apr 22:04:33 22:07:17 16° 91° (E) 22:10:12 435.000
ZACube-1 26 Apr 22:04:38 22:08:55 62° 260° (W) 22:13:19 437.345
RS-15 26 Apr 22:05:56 22:16:21 39° 46° (NE) 22:27:23 29.354- 29.394
UNISAT 6 26 Apr 22:09:06 22:12:16 19° 92° (E) 22:15:34 437.425
VELOX 1 26 Apr 22:13:20 22:17:27 41° 73° (ENE) 22:21:36 145.980
CUBEBUG 1 26 Apr 22:15:58 22:19:02 20° 70° (ENE) 22:22:15 437.445
Cosmos 2491 26 Apr 22:22:09 22:30:45 70° 93° (E) 22:39:28 435.465 / 435.565
DUCHIFAT 1 26 Apr 22:25:29 22:26:18 11° 90° (E) 22:27:25 145.980
POLYITAN 1 26 Apr 22:25:37 22:26:59 12° 90° (E) 22:28:38 437.675
50 SAT 26 Apr 22:26:55 22:30:52 65° 76° (ENE) 22:34:52 437.505
AISAT 26 Apr 22:31:29 22:35:50 72° 76° (ENE) 22:40:14 437.250
DX 1 26 Apr 22:37:07 22:41:13 40° 261° (W) 22:45:18 434.975-435.025
YUBILEINY 26 Apr 22:37:31 22:46:02 57° 268° (W) 22:54:24 435.215
PHONESAT 2.4 26 Apr 22:40:02 22:43:22 37° 211° (SSW) 22:46:40 2401.200-2431.200
QB50P1 26 Apr 22:41:59 22:44:56 19° 93° (E) 22:48:01 145.935-145.965
CUBEBUG 2 26 Apr 22:48:19 22:50:27 13° 270° (W) 22:52:23 437.445
ANTELSAT 26 Apr 22:50:06 22:54:43 54° 100° (E) 22:59:15 437.575/2403.000
TISAT 1 26 Apr 22:57:50 22:58:41 11° 67° (ENE) 22:59:47 437.305
QB50P2 26 Apr 23:07:43 23:11:45 39° 98° (E) 23:15:47 145.880/145.840
ESTCUBE 1 26 Apr 23:15:00 23:19:30 71° 259° (WSW) 23:24:00 437.505/2401.250
O/OREOS (USA 219) 26 Apr 23:15:57 23:17:56 12° 304° (NW) 23:19:39 437.305
UKube-1 26 Apr 23:20:15 23:22:43 14° 268° (W) 23:24:58 .
NANOSAT C BR1 26 Apr 23:24:43 23:28:59 62° 101° (E) 23:33:13 145.865
HUMSAT D 26 Apr 23:27:05 23:29:31 14° 269° (W) 23:31:46 437.325/437.525
POPSAT HIP 1 26 Apr 23:28:31 23:32:49 69° 101° (E) 23:37:06 437.405
SPROUT 26 Apr 23:30:22 23:34:13 35° 73° (ENE) 23:38:08 437.525
TIGRISAT 26 Apr 23:39:50 23:44:17 42° 287° (WNW) 23:48:37 435.000
JUGNU 26 Apr 23:40:16 23:42:45 13° 167° (SSE) 23:45:19 437.505
UNISAT 6 26 Apr 23:44:52 23:49:12 36° 288° (WNW) 23:53:24 437.425
BUGSAT 1 26 Apr 23:45:50 23:50:01 76° 102° (ESE) 23:54:13 437.445
CUBEBUG 1 26 Apr 23:51:28 23:55:16 29° 264° (W) 23:59:00 437.445
VELOX 1 26 Apr 23:51:49 23:54:15 14° 268° (W) 23:56:29 145.980
DUCHIFAT 1 26 Apr 23:58:19 00:02:29 51° 285° (WNW) 00:06:38 145.980
POLYITAN 1 26 Apr 23:59:03 00:03:14 48° 286° (WNW) 00:07:23 437.675
BEESAT 27 Apr 00:10:45 00:12:43 13° 66° (ENE) 00:14:57 436.000
SWISSCUBE 27 Apr 00:12:53 00:15:26 15° 67° (ENE) 00:18:12 437.505
QB50P1 27 Apr 00:17:04 00:20:52 30° 288° (WNW) 00:24:36 145.935-145.965
RS-15 27 Apr 00:18:02 00:29:30 62° 247° (WSW) 00:41:18 29.354- 29.394
Cosmos 2504 27 Apr 00:19:57 00:27:48 64° 80° (E) 00:35:07 435.465 / 435.565
AIST 1 27 Apr 00:20:03 00:24:22 82° 96° (E) 00:28:40
Cosmos 2491 27 Apr 00:22:02 00:28:32 22° 293° (WNW) 00:34:40 435.465 / 435.565
ANTELSAT 27 Apr 00:28:45 00:31:03 13° 293° (WNW) 00:33:06 437.575/2403.000
TISAT 1 27 Apr 00:29:59 00:34:03 53° 260° (W) 00:38:09 437.305
Oscar 19 27 Apr 00:40:47 00:42:20 12° 89° (E) 00:44:15 437.125/150
QB50P2 27 Apr 00:44:46 00:47:21 15° 291° (WNW) 00:49:46 145.880/145.840
SPROUT 27 Apr 01:07:46 01:10:28 16° 268° (W) 01:12:59 437.525
ITUPSAT 1 27 Apr 01:15:30 01:20:14 64° 75° (ENE) 01:24:59 437.325
KKS-1 27 Apr 01:20:19 01:21:20 11° 66° (ENE) 01:22:37 437.445
BEESAT 3 27 Apr 01:26:48 01:30:28 34° 114° (ESE) 01:34:14 437.485
JUGNU 27 Apr 01:27:05 01:31:06 19° 176° (S) 01:35:06 437.505
BEESAT 2 27 Apr 01:30:13 01:33:48 30° 113° (ESE) 01:37:28 435.950
SRMSAT 27 Apr 01:40:26 01:43:23 14° 169° (SSE) 01:46:23 437.500
BEESAT 27 Apr 01:45:25 01:50:07 59° 259° (W) 01:54:52 436.000
SWISSCUBE 27 Apr 01:48:17 01:52:56 50° 260° (W) 01:57:35 437.505
Gurwin Techsat 1B 27 Apr 01:55:29 01:58:51 17° 92° (E) 02:02:25 435.225
